Location: Newark
(34.0131°N, 4.3314°W)
Time: 23:38:42
(UTC+00:00)

SR - Pass Details

Date: 18 October 2019
Orbit: 574 x 882 km, 66.7° (Epoch: 14 November)

Event Time Altitude Azimuth Distance (km) Brightness Sun altitude
Rises 21:30:14 0° 179° (S) 2,939 - -47.6°
Reaches altitude 10° 21:32:38 10° 168° (SSE) 2,080 - -48.0°
Maximum altitude 21:36:44 30° 107° (ESE) 1,255 - -48.8°
Drops below altitude 10° 21:41:11 10° 48° (NE) 2,268 - -49.6°
Sets 21:43:55 0° 38° (NE) 3,253 - -50.1°
